EXS9TL EGCC-LEPA

Flight info

Callsign EXS9TL
Flight time N/A
Altitude 37000
Route ASMIM DCT NOKIN P17 BEPHE DCT OSSEP DCT ELNIF DCT ZESPE DCT KLAKI DCT MANIG DCT BADUR DCT KORER UM616 TUPAR DCT CNA DCT SECHE DCT AGN DCT TOU DCT LOMRA DCT ROCAN DCT IBRAP DCT LUKEV N13 LORES
Aircraft B738/M-SDE2E3FGHIRWXY/LB1

Departure

Time 2026-05-05 10:02
Airport Manchester Airport (EGCC)

Arrival

Time N/A
Airport Palma de Mallorca Airport (LEPA)
Time Latitude Longitude Altitude Speed Heading
2026-05-05 09:26 53.36763 -2.28397 254 ft 0 kts 135°
2026-05-05 09:48 53.36769 -2.28408 254 ft 4 kts 135°
2026-05-05 09:48 53.36786 -2.28436 254 ft 3 kts 135°
2026-05-05 09:48 53.36800 -2.28453 254 ft 4 kts 214°
2026-05-05 09:48 53.36818 -2.28423 254 ft 4 kts 225°
2026-05-05 09:49 53.36808 -2.28439 254 ft 4 kts 224°
2026-05-05 09:49 53.36790 -2.28469 254 ft 2 kts 224°
2026-05-05 09:49 53.36788 -2.28472 254 ft 0 kts 224°
2026-05-05 09:53 53.36787 -2.28473 254 ft 1 kts 224°
2026-05-05 09:53 53.36783 -2.28480 254 ft 1 kts 224°
2026-05-05 09:53 53.36771 -2.28501 254 ft 4 kts 225°
2026-05-05 09:53 53.36748 -2.28539 254 ft 6 kts 224°
2026-05-05 09:54 53.36715 -2.28594 254 ft 8 kts 224°
2026-05-05 09:54 53.36674 -2.28662 254 ft 9 kts 224°
2026-05-05 09:54 53.36642 -2.28750 254 ft 9 kts 249°
2026-05-05 09:54 53.36591 -2.28773 254 ft 9 kts 148°
2026-05-05 09:55 53.36544 -2.28698 254 ft 10 kts 136°
2026-05-05 09:55 53.36495 -2.28615 254 ft 10 kts 135°
2026-05-05 09:55 53.36446 -2.28532 254 ft 11 kts 136°
2026-05-05 09:55 53.36375 -2.28479 254 ft 12 kts 171°
2026-05-05 09:56 53.36302 -2.28399 254 ft 14 kts 134°
2026-05-05 09:56 53.36232 -2.28280 254 ft 15 kts 134°
2026-05-05 09:56 53.36156 -2.28152 254 ft 15 kts 134°
2026-05-05 09:56 53.36077 -2.28027 254 ft 16 kts 139°
2026-05-05 09:57 53.35997 -2.27909 254 ft 15 kts 139°
2026-05-05 09:57 53.35904 -2.27850 254 ft 14 kts 181°
2026-05-05 09:57 53.35793 -2.27868 249 ft 18 kts 186°
2026-05-05 09:57 53.35665 -2.27888 242 ft 15 kts 185°
2026-05-05 09:58 53.35580 -2.27994 237 ft 15 kts 230°
2026-05-05 09:58 53.35513 -2.28104 233 ft 14 kts 213°
2026-05-05 09:58 53.35425 -2.28157 238 ft 13 kts 187°
2026-05-05 09:58 53.35331 -2.28189 234 ft 15 kts 203°
2026-05-05 09:59 53.35237 -2.28295 231 ft 17 kts 224°
2026-05-05 09:59 53.35160 -2.28450 226 ft 18 kts 231°
2026-05-05 09:59 53.35082 -2.28613 228 ft 18 kts 231°
2026-05-05 09:59 53.35003 -2.28766 226 ft 17 kts 224°
2026-05-05 10:00 53.34923 -2.28903 225 ft 16 kts 226°
2026-05-05 10:00 53.34841 -2.29049 217 ft 18 kts 228°
2026-05-05 10:00 53.34764 -2.29202 213 ft 16 kts 231°
2026-05-05 10:00 53.34684 -2.29325 213 ft 14 kts 204°
2026-05-05 10:01 53.34590 -2.29334 217 ft 13 kts 163°
2026-05-05 10:01 53.34534 -2.29242 221 ft 9 kts 92°
2026-05-05 10:01 53.34568 -2.29159 215 ft 9 kts 49°
2026-05-05 10:01 53.34661 -2.28969 219 ft 40 kts 51°
2026-05-05 10:02 53.34920 -2.28432 233 ft 77 kts 51°
2026-05-05 10:02 53.35368 -2.27508 242 ft 131 kts 50°
2026-05-05 10:02 53.36061 -2.26102 306 ft 178 kts 52°
2026-05-05 10:02 53.36822 -2.24379 921 ft 186 kts 51°
2026-05-05 10:03 53.37535 -2.22650 1963 ft 174 kts 49°
2026-05-05 10:03 53.38432 -2.21200 2498 ft 191 kts 23°
2026-05-05 10:03 53.39777 -2.20850 2727 ft 207 kts 350°
2026-05-05 10:03 53.41073 -2.22019 2963 ft 223 kts 310°
2026-05-05 10:04 53.42115 -2.25401 3604 ft 234 kts 297°
2026-05-05 10:04 53.42833 -2.27894 3992 ft 245 kts 297°
2026-05-05 10:04 53.43615 -2.30532 4395 ft 258 kts 298°
2026-05-05 10:04 53.44431 -2.33240 4959 ft 261 kts 298°
2026-05-05 10:05 53.45471 -2.36681 4968 ft 267 kts 298°
2026-05-05 10:05 53.46882 -2.41653 4973 ft 268 kts 284°
2026-05-05 10:05 53.46879 -2.45004 5002 ft 265 kts 262°
2026-05-05 10:05 53.45594 -2.56327 4952 ft 260 kts 262°
2026-05-05 10:06 53.44812 -2.62971 4993 ft 262 kts 255°
2026-05-05 10:06 53.43810 -2.65496 4993 ft 270 kts 220°
2026-05-05 10:06 53.41578 -2.67330 5129 ft 277 kts 202°
2026-05-05 10:06 53.38629 -2.69169 6181 ft 285 kts 201°
2026-05-05 10:07 53.31494 -2.73543 9253 ft 283 kts 202°
2026-05-05 10:07 53.27809 -2.75817 10411 ft 297 kts 203°
2026-05-05 10:07 53.25797 -2.77073 10568 ft 319 kts 202°
2026-05-05 10:07 53.23571 -2.78464 10750 ft 339 kts 202°
2026-05-05 10:08 53.15245 -2.83630 13050 ft 354 kts 203°
2026-05-05 10:08 53.09804 -2.86942 14537 ft 363 kts 198°
2026-05-05 10:08 53.07308 -2.87677 15279 ft 366 kts 186°
2026-05-05 10:08 53.04743 -2.87614 15966 ft 372 kts 175°
2026-05-05 10:09 52.96397 -2.85321 18104 ft 380 kts 172°
2026-05-05 10:09 52.85898 -2.82424 20434 ft 387 kts 173°
2026-05-05 10:09 52.79470 -2.80713 21710 ft 394 kts 173°
2026-05-05 10:09 52.74434 -2.79334 22652 ft 399 kts 172°
2026-05-05 10:10 52.70740 -2.78315 23338 ft 402 kts 173°
2026-05-05 10:10 52.65456 -2.76912 24141 ft 407 kts 173°
2026-05-05 10:10 52.61585 -2.75949 24639 ft 411 kts 176°
2026-05-05 10:10 52.58232 -2.75916 25069 ft 413 kts 185°
2026-05-05 10:11 52.52462 -2.76567 25806 ft 419 kts 184°
2026-05-05 10:11 52.48130 -2.76952 26402 ft 420 kts 184°
2026-05-05 10:11 52.42320 -2.77446 27266 ft 421 kts 184°
2026-05-05 10:11 52.36396 -2.77954 27896 ft 427 kts 183°
2026-05-05 10:12 52.30713 -2.78443 28616 ft 430 kts 183°